Location: Amherst
(42.5000°N, 72.5000°W)
Time: 16:40:29
(UTC-04:00)

ISS - Pass Details

Date: 16 July 2018
Orbit: 402 x 408 km, 51.6° (Epoch: 16 July)

Event Time Altitude Azimuth Distance (km) Brightness Sun altitude
Exits shadow 02:42:25 - 300° (WNW) 2,056 -0.2 -21.6°
Reaches altitude 10° 02:44:18 10° 318° (NW) 1,469 -0.8 -21.4°
Maximum altitude 02:46:29 16° 360° (N) 1,142 -0.8 -21.3°
Drops below altitude 10° 02:48:41 10° 42° (NE) 1,470 0.1 -21.1°
Sets 02:51:20 0° 64° (ENE) 2,332 0.9 -20.8°
